Change the Weather History Date:

Monday, August 5, 2013

  Actual Average Record
Temperature  
Mean Temperature 68 °F -  
Max Temperature 77 °F 85 °F 99 °F (1976)
Min Temperature 59 °F 58 °F 48 °F (1990)
Cooling Degree Days 3    
Growing Degree Days 18 (Base 50)    
Moisture  
Dew Point 63 °F    
Average Humidity 86    
Maximum Humidity 100    
Minimum Humidity 65    
Precipitation  
Precipitation 0.05 in - - ()
Sea Level Pressure  
Sea Level Pressure 29.91 in    
Wind  
Wind Speed 5 mph (NNW)    
Max Wind Speed 13 mph    
Max Gust Speed 24 mph    
Visibility 8 miles    
Events Fog , Rain , Thunderstorm    
Averages and records for this station are not official NWS values.
T = Trace of Precipitation, MM = Missing Value Source: NWS Daily Summary

Daily Weather History Graph

Daily Weather History Graph

Search for Another Location

Airport or City:

Trip Planner

Search our weather history database for the weather conditions in past years. The results will help you decide how hot, cold, wet, or windy it might be!

Date:

Astronomy

Aug. 05, 2013 Rise Set
Actual Time 6:14 AM CDT 8:49 PM CDT
Civil Twilight 5:40 AM CDT 9:22 PM CDT
Nautical Twilight 4:57 AM CDT 10:05 PM CDT
Astronomical Twilight 4:09 AM CDT 10:53 PM CDT
Moon 5:11 AM CDT (8/5) 7:47 PM CDT (8/5)
Length of Visible Light 15h 42m
Length of Day
14h 34m
Waning Crescent, 1% of the Moon is Illuminated
Aug 5
Waning Crescent
Aug 6
New
Aug 14
First Quarter
Aug 20
Full
Aug 28
Last Quarter

Hourly Weather History & Observations

Time (CDT) Temp. Dew Point Humidity Pressure Visibility Wind Dir Wind Speed Gust Speed Precip Events Conditions
12:14 AM 64.4 °F 62.6 °F 94% 29.94 in 10.0 mi SSE 11.5 mph 24.2 mph 0.04 in Rain , Thunderstorm Light Thunderstorms and Rain
12:34 AM 64.4 °F 62.6 °F 94% 29.93 in 10.0 mi SSE 12.7 mph 19.6 mph 0.05 in   Clear
12:55 AM 64.4 °F 62.6 °F 94% 29.93 in 10.0 mi SSE 9.2 mph - 0.05 in   Clear
1:14 AM 64.4 °F 62.6 °F 94% 29.96 in 10.0 mi Calm Calm - N/A   Clear
1:34 AM 64.4 °F 62.6 °F 94% 29.97 in 10.0 mi Calm Calm - N/A   Mostly Cloudy
1:54 AM 64.4 °F 62.6 °F 94% 29.96 in 10.0 mi Calm Calm - N/A   Overcast
2:14 AM 64.4 °F 62.6 °F 94% 29.96 in 10.0 mi Calm Calm - N/A   Overcast
2:35 AM 64.4 °F 62.6 °F 94% 29.95 in 10.0 mi Calm Calm - N/A   Overcast
2:54 AM 64.4 °F 62.6 °F 94% 29.94 in 10.0 mi SE 3.5 mph - N/A   Mostly Cloudy
3:14 AM 64.4 °F 62.6 °F 94% 29.94 in 10.0 mi Calm Calm - N/A   Scattered Clouds
3:34 AM 64.4 °F 62.6 °F 94% 29.93 in 10.0 mi Calm Calm - N/A   Mostly Cloudy
3:54 AM 64.4 °F 62.6 °F 94% 29.93 in 10.0 mi Calm Calm - N/A   Overcast
4:15 AM 64.4 °F 62.6 °F 94% 29.93 in 10.0 mi Calm Calm - N/A   Overcast
4:34 AM 64.4 °F 62.6 °F 94% 29.92 in 10.0 mi Calm Calm - N/A   Overcast
4:54 AM 64.4 °F 62.6 °F 94% 29.92 in 7.0 mi SE 3.5 mph - N/A   Mostly Cloudy
5:14 AM 62.6 °F 62.6 °F 100% 29.92 in 3.0 mi Calm Calm - N/A   Scattered Clouds
5:34 AM 60.8 °F 60.8 °F 100% 29.92 in 2.5 mi SE 3.5 mph - N/A   Clear
5:54 AM 60.8 °F 60.8 °F 100% 29.91 in 0.2 mi Calm Calm - N/A Fog Fog
6:14 AM 60.8 °F 60.8 °F 100% 29.92 in 0.2 mi SE 3.5 mph - N/A Fog Fog
6:34 AM 60.8 °F 60.8 °F 100% 29.92 in 0.5 mi Calm Calm - N/A Fog Fog
6:54 AM 60.8 °F 60.8 °F 100% 29.91 in 0.5 mi Calm Calm - N/A Fog Fog
7:14 AM 62.6 °F 60.8 °F 94% 29.91 in 0.8 mi Calm Calm - N/A   Overcast
7:34 AM 62.6 °F 62.6 °F 100% 29.90 in 1.0 mi Calm Calm - N/A   Overcast
7:54 AM 64.4 °F 64.4 °F 100% 29.91 in 1.2 mi SSW 3.5 mph - N/A   Overcast
8:14 AM 64.4 °F 64.4 °F 100% 29.91 in 1.0 mi SSW 3.5 mph - N/A   Overcast
8:34 AM 66.2 °F 64.4 °F 94% 29.90 in 3.0 mi SW 3.5 mph - N/A   Overcast
8:55 AM 66.2 °F 66.2 °F 100% 29.91 in 3.0 mi SW 3.5 mph - N/A   Overcast
9:14 AM 66.2 °F 66.2 °F 100% 29.91 in 10.0 mi WSW 4.6 mph - N/A   Overcast
9:34 AM 68.0 °F 66.2 °F 94% 29.91 in 10.0 mi SW 4.6 mph - N/A   Overcast
9:54 AM 68.0 °F 68.0 °F 100% 29.91 in 10.0 mi West 6.9 mph - N/A   Overcast
10:15 AM 69.8 °F 66.2 °F 88% 29.90 in 10.0 mi WNW 6.9 mph - N/A   Overcast
10:35 AM 71.6 °F 66.2 °F 83% 29.90 in 10.0 mi NW 9.2 mph - N/A   Overcast
10:54 AM 71.6 °F 66.2 °F 83% 29.90 in 10.0 mi NW 8.1 mph - N/A   Mostly Cloudy
11:14 AM 71.6 °F 66.2 °F 83% 29.91 in 10.0 mi WNW 5.8 mph - N/A   Mostly Cloudy
11:35 AM 71.6 °F 66.2 °F 83% 29.91 in 10.0 mi NW 9.2 mph - N/A   Overcast
11:54 AM 71.6 °F 66.2 °F 83% 29.91 in 10.0 mi NW 10.4 mph - N/A   Mostly Cloudy
12:14 PM 73.4 °F 66.2 °F 78% 29.91 in 10.0 mi NNW 10.4 mph 17.3 mph N/A   Mostly Cloudy
12:34 PM 71.6 °F 66.2 °F 83% 29.91 in 10.0 mi NNW 11.5 mph - N/A   Scattered Clouds
12:55 PM 71.6 °F 66.2 °F 83% 29.91 in 10.0 mi NNW 10.4 mph - N/A   Scattered Clouds
1:14 PM 71.6 °F 64.4 °F 78% 29.92 in 10.0 mi NW 11.5 mph 17.3 mph N/A   Scattered Clouds
1:34 PM 69.8 °F 64.4 °F 83% 29.92 in 10.0 mi NNW 10.4 mph - N/A   Mostly Cloudy
1:54 PM 71.6 °F 64.4 °F 78% 29.92 in 10.0 mi NW 6.9 mph - N/A   Mostly Cloudy
2:14 PM 71.6 °F 64.4 °F 78% 29.92 in 10.0 mi NW 8.1 mph - N/A   Mostly Cloudy
2:34 PM 73.4 °F 64.4 °F 73% 29.92 in 10.0 mi NNW 6.9 mph - N/A   Scattered Clouds
2:54 PM 73.4 °F 64.4 °F 73% 29.91 in 10.0 mi NW 6.9 mph - N/A   Scattered Clouds
3:15 PM 75.2 °F 64.4 °F 69% 29.91 in 10.0 mi NW 5.8 mph - N/A   Scattered Clouds
3:34 PM 75.2 °F 64.4 °F 69% 29.90 in 10.0 mi North 6.9 mph - N/A   Scattered Clouds
3:55 PM 77.0 °F 64.4 °F 65% 29.90 in 10.0 mi NW 5.8 mph - N/A   Scattered Clouds
4:15 PM 77.0 °F 64.4 °F 65% 29.89 in 10.0 mi NW 6.9 mph - N/A   Clear
4:34 PM 75.2 °F 64.4 °F 69% 29.89 in 10.0 mi NNW 9.2 mph - N/A   Scattered Clouds
4:54 PM 75.2 °F 64.4 °F 69% 29.89 in 10.0 mi NNW 9.2 mph - N/A   Scattered Clouds
5:14 PM 75.2 °F 64.4 °F 69% 29.89 in 10.0 mi NNW 8.1 mph - N/A   Scattered Clouds
5:34 PM 75.2 °F 62.6 °F 65% 29.88 in 10.0 mi NW 8.1 mph - N/A   Scattered Clouds
5:54 PM 75.2 °F 64.4 °F 69% 29.88 in 10.0 mi North 5.8 mph - N/A   Scattered Clouds
6:15 PM 75.2 °F 62.6 °F 65% 29.87 in 10.0 mi NNW 4.6 mph - N/A   Scattered Clouds
6:35 PM 73.4 °F 64.4 °F 73% 29.87 in 10.0 mi North 5.8 mph - N/A   Scattered Clouds
6:54 PM 75.2 °F 62.6 °F 65% 29.87 in 10.0 mi North 3.5 mph - N/A   Mostly Cloudy
7:14 PM 75.2 °F 62.6 °F 65% 29.86 in 10.0 mi North 4.6 mph - N/A   Scattered Clouds
7:34 PM 73.4 °F 62.6 °F 69% 29.85 in 10.0 mi North 3.5 mph - N/A   Clear
7:54 PM 73.4 °F 62.6 °F 69% 29.85 in 10.0 mi North 4.6 mph - N/A   Clear
8:14 PM 71.6 °F 62.6 °F 73% 29.85 in 10.0 mi Calm Calm - N/A   Clear
8:34 PM 69.8 °F 62.6 °F 78% 29.85 in 10.0 mi ENE 3.5 mph - N/A   Clear
8:54 PM 68.0 °F 62.6 °F 83% 29.86 in 10.0 mi Calm Calm - N/A   Clear
9:15 PM 66.2 °F 62.6 °F 88% 29.87 in 10.0 mi Calm Calm - N/A   Clear
9:35 PM 66.2 °F 60.8 °F 83% 29.87 in 10.0 mi NE 3.5 mph - N/A   Clear
9:54 PM 64.4 °F 60.8 °F 88% 29.88 in 10.0 mi East 3.5 mph - N/A   Clear
10:14 PM 62.6 °F 60.8 °F 94% 29.88 in 7.0 mi East 3.5 mph - N/A   Clear
10:34 PM 62.6 °F 60.8 °F 94% 29.89 in 10.0 mi ENE 3.5 mph - N/A   Clear
10:54 PM 60.8 °F 59.0 °F 94% 29.90 in 10.0 mi ESE 3.5 mph - N/A   Clear
11:14 PM 60.8 °F 59.0 °F 94% 29.90 in 10.0 mi ESE 3.5 mph - N/A   Clear
11:34 PM 59.0 °F 57.2 °F 94% 29.89 in 10.0 mi SE 4.6 mph - N/A   Clear
11:54 PM 59.0 °F 57.2 °F 94% 29.89 in 10.0 mi SE 5.8 mph - N/A   Clear